GFSGL_850_temp_162.txt.gz
Temp
20 20 20 19 18 18 18 19 19 19 19 19 19 19 19 19 19 19 19 19 19 19 18 18 18 18 19 19 19 19 19 19 19 19 19 19 19 19 18 18 18 18 18
20 20 20 19 18 18 18 18 18 19 19 19 19 19 19 19 18 19 19 18 18 18 18 19 19 18 19 19 19 19 19 19 19 19 19 19 18 18 18 18 18 18 18
20 19 19 19 19 18 18 18 18 18 19 19 19 19 19 19 18 18 19 19 18 18 18 18 19 19 19 19 18 18 19 18 18 18 19 19 19 19 19 18 18 18 18
19 19 19 19 19 18 18 18 18 18 18 18 18 18 18 18 18 18 18 18 18 18 18 18 18 18 19 19 19 19 18 18 18 18 18 19 19 19 19 19 18 18 18
19 19 19 19 19 19 18 18 17 17 17 18 18 18 18 18 18 18 18 18 18 18 18 18 18 18 18 18 18 18 18 18 18 18 18 18 18 18 18 18 18 17 17
18 19 18 18 19 19 18 18 18 17 17 17 18 18 18 17 17 18 18 18 18 18 18 18 18 18 18 18 18 17 18 18 18 18 18 18 18 18 18 18 18 18 17
17 17 17 18 18 18 18 18 18 18 18 18 18 18 18 18 17 17 17 18 18 18 18 18 17 18 18 18 17 16 17 17 18 18 18 17 17 17 17 17 17 17 17
15 16 16 17 16 16 17 17 18 18 17 18 18 17 17 17 17 17 17 17 17 17 17 17 18 18 17 17 17 17 17 18 18 17 17 17 17 17 16 16 17 16 16
15 15 15 15 15 15 16 17 17 16 17 16 16 16 16 17 17 16 17 17 16 16 17 17 17 17 17 17 17 17 17 17 17 17 16 16 16 16 16 16 16 16 15
14 14 14 15 15 16 16 16 15 15 15 15 16 16 16 16 16 16 16 15 15 16 16 16 15 16 16 17 17 17 16 16 16 15 15 15 15 15 15 15 15 15 14
15 14 14 15 15 15 15 15 15 14 14 15 15 15 14 14 15 15 15 14 14 14 14 14 15 15 15 15 15 16 15 14 14 14 14 14 13 14 14 14 14 14 13
14 15 15 15 14 15 15 15 15 14 14 14 14 14 14 14 14 14 15 14 14 14 14 14 14 14 14 15 14 14 14 14 14 13 13 13 13 12 13 13 13 12 13
14 14 14 14 15 14 14 14 14 13 13 13 13 13 14 14 14 13 13 13 13 13 13 13 13 13 14 13 14 13 13 13 13 12 12 12 12 12 11 12 12 12 12
13 13 13 13 14 13 13 13 13 13 12 12 12 13 13 14 13 13 12 12 12 12 12 12 12 12 12 13 12 12 12 12 11 11 11 11 11 11 11 11 11 11 11
14 13 13 13 13 13 13 13 12 12 12 12 13 13 13 13 13 12 12 12 12 12 12 12 12 11 11 11 12 12 11 11 11 11 11 10 10 10 10 10 9 9 9
13 12 12 12 12 12 13 12 12 12 12 12 12 12 13 12 12 12 12 12 11 11 11 11 11 11 11 11 11 11 11 11 11 10 10 10 10 10 9 9 9 9 9
12 12 12 12 12 12 12 13 13 13 12 12 12 12 12 12 11 11 11 11 10 10 10 10 10 10 10 10 10 11 11 11 10 10 10 10 10 10 9 9 8 8 8
12 12 12 12 12 12 12 12 13 12 12 12 12 12 11 11 11 10 10 10 10 10 10 10 10 10 10 10 10 10 10 10 10 10 9 9 9 9 8 8 8 7 7
12 12 12 12 12 12 12 12 12 12 12 12 12 12 11 11 11 10 10 10 10 10 10 10 9 9 10 10 10 10 9 9 9 9 9 8 8 7 7 7 7 7 6
12 12 12 12 12 12 12 12 12 12 12 12 12 12 11 11 10 10 10 10 10 10 10 10 10 10 10 10 10 9 9 9 8 8 8 8 7 7 7 6 6 6 6
13 12 12 12 13 13 13 12 12 12 12 12 12 12 12 12 11 11 11 10 10 10 10 10 10 10 10 10 9 9 9 8 8 8 8 7 7 7 6 6 6 5 5
13 13 13 13 13 13 13 13 13 13 13 13 12 12 12 12 12 12 11 11 11 11 10 10 10 10 10 10 9 9 9 8 8 7 7 7 7 6 6 5 5 5 4
13 13 13 13 13 13 13 13 13 13 13 13 13 13 13 12 12 12 12 11 11 11 10 10 10 10 10 10 9 9 8 8 7 7 7 7 7 6 6 5 5 5 4
12 13 13 13 13 13 13 13 13 13 13 13 13 13 12 13 12 12 12 11 11 11 10 10 10 10 10 9 9 9 8 8 8 7 7 7 6 6 6 5 5 5 5
12 12 12 13 13 13 13 13 13 13 13 13 12 12 12 12 12 12 12 11 11 11 11 10 10 10 9 9 9 9 8 8 7 7 7 7 6 6 5 5 5 5 5
12 12 12 12 13 13 13 13 13 13 12 12 12 12 12 12 12 12 12 11 11 11 11 10 10 10 9 9 9 8 8 8 7 7 7 6 6 6 6 6 5 5 5

GFSGL_850_temp_165.txt.gz
Temp
21 20 20 19 19 19 19 19 18 19 19 19 19 19 19 19 19 18 18 18 18 18 18 18 19 18 18 18 18 19 18 19 19 19 19 19 19 19 18 18 18 18 18
21 21 20 19 19 19 19 19 19 18 18 19 19 19 19 19 19 18 18 19 18 18 18 18 18 18 18 18 18 18 18 18 18 18 18 19 18 18 18 18 18 18 18
21 20 21 20 19 19 19 19 18 18 18 18 19 19 19 19 19 19 19 18 18 18 18 18 18 18 18 18 18 18 18 18 18 18 18 18 19 18 18 18 18 18 18
20 20 20 20 19 19 19 19 18 18 18 18 18 18 18 18 18 18 18 18 18 18 18 18 18 18 18 18 18 18 18 18 18 18 18 18 18 18 18 18 17 17 17
19 19 19 19 19 19 18 19 18 18 18 18 18 17 17 18 18 18 18 18 18 18 18 18 18 18 18 18 18 18 18 18 17 17 18 17 17 18 18 18 18 18 16
19 19 19 19 19 19 18 18 18 18 18 18 18 18 18 18 18 18 18 18 18 18 18 18 18 18 18 18 18 18 18 18 17 17 17 17 17 17 17 18 18 18 15
18 18 18 18 17 18 18 18 18 18 18 18 18 18 18 18 18 18 18 18 18 18 18 18 18 18 17 17 18 17 17 17 17 17 17 17 17 17 16 16 17 17 15
17 17 17 17 17 17 17 17 18 18 18 18 18 18 18 17 17 17 17 17 17 17 17 17 17 17 17 17 17 17 17 17 17 17 17 17 17 16 16 16 16 16 16
16 16 16 16 16 15 15 16 16 17 18 18 17 17 16 16 16 16 17 16 17 16 17 17 17 17 17 17 16 16 16 16 16 16 16 16 16 16 16 16 16 15 14
15 15 15 15 15 15 15 15 15 16 16 16 16 16 16 16 16 16 16 15 15 16 16 16 16 16 16 15 16 15 15 15 15 15 15 15 15 15 15 15 15 14 14
14 14 14 14 15 14 14 14 14 14 14 15 15 15 15 15 15 15 15 15 15 15 14 15 14 14 14 14 14 14 14 14 14 14 13 14 14 14 14 14 14 13 13
14 14 14 14 14 14 14 14 14 14 14 14 14 14 14 14 14 14 14 14 14 14 14 14 14 14 14 13 13 13 14 14 13 13 13 13 13 13 13 13 13 13 13
14 15 15 15 14 14 14 14 14 14 14 14 13 14 14 14 14 14 14 14 13 13 13 13 13 13 13 13 13 13 13 13 12 12 12 12 12 12 12 12 12 11 12
14 14 14 14 14 14 14 13 13 14 14 14 14 14 14 13 13 13 12 13 13 12 12 12 12 12 12 13 12 12 12 11 11 11 11 11 11 11 11 10 10 9 9
13 13 13 13 13 13 13 13 13 13 13 13 13 13 13 13 12 12 12 12 12 12 12 11 11 11 11 11 11 11 11 11 11 11 11 11 10 10 10 10 10 9 8
13 12 12 13 13 13 13 13 12 12 12 13 13 13 13 12 12 12 11 11 11 11 11 11 11 11 11 11 11 11 10 10 10 10 10 10 10 9 9 9 9 8 8
13 13 12 12 12 12 12 12 13 12 12 12 12 12 12 12 12 12 11 11 11 11 11 11 11 11 11 10 11 10 10 10 10 10 10 10 9 9 9 9 8 7 7
13 12 12 12 12 12 12 12 12 12 12 12 11 11 11 11 11 11 11 11 11 11 11 11 11 11 11 11 11 11 10 10 10 10 9 9 9 8 7 7 7 7 6
12 12 12 12 12 12 12 12 12 12 12 12 12 11 11 10 10 10 10 10 9 9 10 10 10 10 10 10 10 10 10 10 9 9 9 9 8 7 7 7 7 7 6
12 12 12 12 12 12 12 12 12 12 12 12 11 11 11 11 11 10 10 11 11 10 10 10 10 10 10 10 10 10 9 9 9 9 8 8 8 7 6 6 6 6 5
12 12 12 12 12 12 12 12 12 12 12 12 12 12 12 12 11 11 11 11 10 9 10 10 10 10 10 10 10 9 9 9 9 8 8 8 7 6 6 6 5 5 5
13 13 13 12 13 13 13 13 13 13 12 12 12 12 12 12 12 12 11 11 11 10 10 10 10 10 10 10 9 9 9 8 8 8 8 7 7 7 5 5 5 5 5
13 13 13 13 13 13 13 13 13 13 13 13 12 12 13 12 12 12 12 11 11 11 11 11 10 10 10 10 10 9 9 8 8 8 8 8 7 7 5 5 5 5 5
13 13 13 13 13 13 13 13 13 13 13 13 13 13 13 13 12 12 12 12 11 11 11 11 10 10 10 10 10 10 9 9 8 8 8 7 7 7 5 5 5 5 5
13 13 13 13 13 13 13 13 13 13 13 13 13 13 13 12 12 12 12 12 12 11 11 11 10 10 10 10 9 9 9 9 8 8 7 7 7 6 5 5 5 5 5
12 12 12 12 13 13 13 13 13 13 13 12 12 12 12 12 12 12 12 12 12 11 11 11 11 10 10 10 9 8 8 8 8 7 7 7 7 6 5 5 5 5 5

GFSGL_850_temp_168.txt.gz
Temp
19 19 19 18 18 18 18 18 18 18 19 18 18 19 18 18 18 18 18 18 18 18 18 18 18 18 19 19 19 19 19 20 22 20 19 18 19 17 17 18 18 17 18
20 19 19 19 18 18 18 18 18 18 18 18 19 19 19 19 19 19 18 19 18 18 18 18 18 19 18 18 19 19 18 18 19 19 18 17 17 18 18 17 16 17 16
19 19 19 18 18 18 18 18 18 18 18 18 19 18 18 18 17 18 18 18 18 18 18 18 18 18 17 19 18 19 18 18 17 18 17 18 17 18 18 17 17 16 16
19 19 19 19 18 18 18 18 18 17 18 17 18 17 17 18 17 18 18 17 18 18 18 18 18 18 18 17 18 17 18 17 17 17 18 18 18 18 17 16 16 15 16
19 20 20 19 18 18 18 19 19 18 17 17 17 18 17 17 18 18 18 17 18 18 17 17 17 18 18 18 18 18 18 18 18 18 19 17 17 17 17 17 16 16 16
20 19 19 17 18 19 19 18 19 18 18 17 17 17 17 17 18 18 18 17 18 18 17 17 18 18 18 18 18 18 18 18 18 18 18 17 17 17 17 17 17 16 15
19 19 19 19 19 19 19 19 19 18 17 17 17 17 17 17 18 18 18 17 17 17 18 18 17 18 18 18 18 18 18 17 16 17 17 17 17 17 17 17 17 16 15
17 17 18 18 19 19 18 19 18 18 18 18 18 18 17 18 18 18 17 17 17 17 17 18 17 17 17 17 17 17 17 17 17 17 17 17 16 16 16 16 15 15 15
16 16 17 17 17 17 17 17 18 18 18 18 17 17 17 17 17 16 16 15 16 17 17 17 17 17 17 17 17 17 16 16 16 16 16 16 16 16 16 16 15 14 14
15 15 16 16 16 16 16 16 16 17 17 17 16 16 16 16 15 16 16 16 15 16 15 16 16 16 16 16 16 16 15 15 15 15 15 15 15 15 15 15 15 14 14
15 14 15 15 15 15 15 15 15 15 16 16 15 15 15 15 15 15 15 15 15 15 15 15 15 15 14 14 14 14 14 14 14 14 14 14 14 14 14 14 14 14 13
13 14 14 14 14 14 14 14 14 14 14 14 14 14 14 14 14 14 14 14 14 14 14 14 14 14 14 14 13 13 13 13 13 13 13 13 13 13 13 13 13 13 13
14 14 14 14 14 14 14 14 14 14 13 13 13 13 13 13 14 14 14 13 13 14 13 13 13 13 13 13 13 13 13 12 13 12 12 12 12 12 12 12 12 12 12
14 14 14 14 14 14 14 14 14 13 13 13 12 13 13 13 13 13 13 13 13 13 13 12 12 12 13 13 12 12 12 11 11 11 11 11 10 10 10 10 10 10 10
13 13 13 13 13 14 13 12 12 12 11 12 11 12 13 13 13 13 12 11 12 12 12 12 12 12 11 11 11 11 11 10 11 9 9 9 9 9 9 10 10 10 10
13 13 13 13 13 13 12 13 13 12 13 13 13 13 13 12 12 12 12 13 12 11 11 11 11 11 11 10 10 10 10 10 9 9 9 9 9 9 9 9 10 10 10
12 12 12 12 12 13 13 13 13 12 12 12 12 12 12 12 12 12 12 12 11 11 11 11 11 11 10 10 10 10 9 10 10 9 9 9 9 9 9 9 9 9 9
12 13 12 12 12 12 12 12 12 12 11 12 12 12 12 12 11 11 11 11 11 12 12 12 11 11 10 10 10 10 9 9 9 9 9 9 9 9 9 9 9 9 9
12 12 12 12 12 12 12 12 12 12 12 10 11 11 11 11 11 11 11 12 12 12 11 11 11 11 10 10 9 9 9 9 9 9 9 9 9 9 9 9 8 8 8
12 12 13 12 12 12 13 13 13 13 12 12 12 11 11 11 11 11 11 11 12 12 12 11 11 10 9 9 9 9 9 9 9 9 9 9 9 9 9 9 9 9 8
12 12 12 13 13 13 13 13 13 13 13 13 13 12 11 12 13 12 12 12 12 12 11 11 10 10 10 9 9 9 9 10 9 9 9 9 8 9 8 8 8 8 8
14 13 13 14 13 13 14 13 14 14 14 14 13 13 13 12 13 13 12 12 12 11 11 10 10 10 10 10 9 10 10 10 9 9 9 8 8 8 8 8 8 8 8
14 14 14 14 14 14 13 14 14 14 14 14 14 13 13 12 13 13 13 12 12 11 11 11 10 10 10 10 10 9 9 10 9 8 8 8 8 8 8 8 8 8 8
15 15 14 14 14 14 14 14 14 14 15 14 14 14 14 13 13 13 13 12 12 12 11 11 11 11 10 10 9 9 9 9 9 8 8 8 8 7 8 8 8 8 7
15 15 15 15 14 14 15 15 15 15 14 14 14 14 13 13 13 13 13 13 12 11 11 11 11 11 10 10 10 9 9 9 8 8 8 7 8 7 8 8 8 7 7
15 15 15 15 15 15 15 15 15 14 14 14 13 13 13 13 13 13 13 12 12 11 11 10 10 10 10 10 9 9 9 8 8 8 8 7 7 7 7 7 7 7 7

GFSGL_850_temp_171.txt.gz
Temp
20 20 19 19 19 19 19 19 19 19 19 19 18 18 18 19 19 18 19 19 18 18 19 19 19 19 19 21 21 20 21 21 20 21 20 20 19 17 17 18 17 16 17
21 20 20 20 19 20 19 19 19 18 18 18 18 18 19 19 19 18 19 19 19 19 19 19 19 20 19 20 20 20 20 20 20 19 19 19 18 18 19 17 17 16 16
21 21 21 20 20 20 20 19 19 18 18 18 18 18 18 18 18 18 18 19 19 20 19 19 19 19 19 19 19 19 19 19 20 20 19 18 18 17 18 17 17 16 17
21 22 21 20 20 20 20 19 19 19 18 18 18 18 18 18 18 19 19 18 19 19 19 19 19 19 19 18 18 18 19 19 19 18 18 19 18 18 17 17 17 16 15
20 20 20 20 19 19 19 19 19 19 18 18 18 18 18 18 19 18 18 18 18 18 19 19 18 18 19 18 19 18 18 18 18 18 18 17 18 17 17 16 17 16 15
18 20 20 19 19 19 19 19 19 18 18 18 18 18 18 19 19 19 19 18 18 17 18 17 18 18 18 18 18 18 18 18 17 18 18 18 18 17 17 17 17 16 15
18 19 18 19 19 18 19 18 18 18 18 18 18 17 18 18 18 18 18 18 17 18 18 18 18 18 18 18 18 18 18 18 17 17 17 17 17 17 17 16 16 16 15
17 17 18 18 18 18 18 18 18 18 18 18 18 18 17 18 19 18 18 18 17 17 17 18 18 17 17 17 16 17 18 18 18 17 17 17 17 17 16 16 16 16 15
17 17 18 18 18 17 17 17 17 19 18 18 18 17 17 19 18 17 17 17 16 16 18 18 18 16 17 17 16 16 17 16 16 16 16 16 16 16 16 16 15 15 14
16 16 16 17 17 16 16 16 17 17 18 18 18 17 17 18 17 16 16 16 16 16 16 16 16 16 16 16 16 15 16 15 15 15 15 15 15 15 15 14 15 14 14
15 15 15 15 15 16 16 16 17 16 16 16 16 15 15 15 15 15 15 15 15 15 15 15 15 15 15 15 15 14 14 14 14 14 14 14 14 14 14 13 13 13 14
14 15 15 15 15 15 15 15 15 15 15 15 15 15 15 14 14 14 14 14 14 14 14 14 14 14 14 14 14 13 13 13 13 13 13 13 13 13 13 13 13 13 13
14 14 14 15 14 14 15 14 14 14 14 14 14 13 13 13 13 13 13 14 13 14 14 13 13 13 13 13 13 13 13 13 12 12 12 11 11 12 12 12 12 12 12
14 15 14 14 14 13 14 13 14 13 13 13 13 13 13 13 13 13 13 13 13 13 13 13 13 13 13 13 12 12 12 12 11 11 11 11 11 10 10 11 11 10 11
13 13 13 14 14 14 14 13 13 13 13 13 12 12 12 12 13 13 13 13 13 12 13 12 12 12 12 12 11 12 11 11 10 10 10 10 10 10 10 11 11 11 10
13 13 13 13 13 12 12 12 12 12 12 12 13 13 13 13 13 13 12 12 12 12 12 12 12 12 11 11 11 11 10 11 11 11 11 10 10 10 10 11 11 11 11
13 13 12 12 12 12 12 12 13 12 12 13 13 13 13 13 13 13 13 12 12 12 13 13 12 12 12 12 12 11 11 10 10 11 11 11 10 10 11 10 10 10 10
13 13 14 14 14 13 13 12 13 12 12 12 12 12 12 12 12 12 12 13 13 13 13 13 12 12 12 12 12 11 11 11 11 11 11 11 11 11 11 11 11 10 10
13 13 14 13 14 14 14 14 14 13 12 11 12 12 12 12 12 12 13 13 14 14 13 13 13 12 12 11 11 11 11 11 11 11 11 11 11 11 11 11 10 10 10
14 14 15 14 14 14 14 14 14 13 12 13 13 12 12 13 12 12 13 13 14 14 13 13 12 12 11 11 10 10 10 10 10 11 11 11 11 11 11 11 10 10 10
14 14 15 15 16 16 15 15 15 15 15 15 14 13 12 13 14 14 14 13 14 13 13 13 12 11 11 11 11 11 11 11 11 11 10 10 10 11 10 10 10 10 10
15 14 15 16 16 15 16 16 16 16 15 15 14 13 13 14 15 14 14 14 13 13 12 12 12 12 12 11 11 12 12 11 11 10 10 10 10 10 10 10 10 10 9
16 16 16 16 16 15 15 16 16 16 16 16 15 13 13 14 15 15 14 14 14 13 13 12 12 12 12 11 11 11 11 11 11 10 10 10 10 10 10 10 10 10 10
17 17 16 16 16 15 16 16 16 16 16 16 16 15 15 15 15 15 15 14 14 13 13 12 12 12 12 11 11 11 11 11 10 10 9 10 10 9 9 9 9 9 9
17 17 17 17 16 16 16 16 16 16 16 16 16 16 16 15 15 15 15 14 14 13 13 13 12 12 11 11 11 11 11 11 10 10 9 9 9 9 9 9 9 9 9
17 17 17 17 17 16 16 16 17 17 16 16 16 16 15 15 14 14 14 14 14 13 13 13 12 11 11 11 11 10 10 10 10 9 8 8 8 8 8 9 9 9 8